Regional Weather Roundup
Issued by NWS Midland/Odessa, TX

Skip options and go directly to product.
Home | Oldest Version | Next Version | Current Version | All | Text Only | Save Text | Print | Product List | Glossary On

Skip product version selection by date and time.   
955
ASUS44 KMAF 211102
RWRMAF
MIDLAND AREA WEATHER ROUNDUP
NATIONAL WEATHER SERVICE MIDLAND TX
600 AM CDT MON JUL 21 2014

...IN SOUTHWEST TEXAS AND SOUTHEAST NEW MEXICO...

CITY           SKY/WX    TMP DP  RH WIND       PRES   REMARKS
ALPINE         CLOUDY    74  65  71 SE12      30.20R
ANDREWS        NOT AVBL
ARTESIA        CLEAR     72  59  64 S8        30.03R
BIG SPRING       N/A     79  68  69 S8        30.05R
CARLSBAD       CLEAR     81  54  39 W8        30.01S
DRYDEN           N/A     82  72  71 E8        29.98R
FORT STOCKTON  CLEAR     77  68  73 S13       30.03S
GUAD PASS      CLEAR     71  53  52 SW22G32   30.20R
HOBBS          NOT AVBL
MARFA          MOCLDY    66  63  88 NW3       30.18S
MIDLAND AIRPK  CLEAR     79  68  69 S6        30.04R
MIDLAND INTL   CLEAR     78  69  73 S12         N/A
ODESSA         CLEAR     79  67  66 S12       30.04R
PECOS          CLEAR     76  63  64 CALM      29.99R
PRESIDIO       FAIR      82  61  48 NW5       30.01S
SEMINOLE       CLEAR     75  64  69 SW5       30.08R
SNYDER         CLEAR     74  69  84 S5        30.03S
WINK           CLEAR     80  69  69 SE10      29.99R
$$
...OTHER STATIONS IN TEXAS...

CITY           SKY/WX    TMP DP  RH WIND       PRES   REMARKS
ABILENE        CLEAR     77  72  84 S13       30.01R
AMARILLO       CLEAR     73  67  81 S16       30.06R
AUSTIN         PTCLDY    75  74  96 CALM      29.99R FOG
BROWNSVILLE    CLEAR     80  78  94 S10       29.92S
CORPUS CHRISTI CLOUDY    80  77  90 S3        29.95S
DALLAS FTW     MOCLDY    74  71  91 SE7       30.01R
DEL RIO        PTCLDY    82  73  74 E12       29.95R
EL PASO        MOCLDY    81  52  36 E5        30.11R
HOUSTON INT    PTCLDY    78  76  93 CALM      29.99R
LUBBOCK        PTCLDY    74  66  76 S7        30.05R
SAN ANGELO     CLEAR     78  71  79 S8        30.00R
SAN ANTONIO    MOCLDY    78  75  90 E6        30.00R
WACO           MOCLDY    78  75  90 S8        29.99R
WICHITA FALLS  NOT AVBL
$$
...OTHER LOCATIONS IN NEW MEXICO...

CITY           SKY/WX    TMP DP  RH WIND       PRES   REMARKS
ALAMAGORDO     MOCLDY    73  55  53 S6        30.14R
ALBUQUERQUE    MOCLDY    70  53  54 SE8       30.21R
CANNON AFB     CLEAR     71  65  81 S6        30.09R
CLOVIS         NOT AVBL
HOLLOMAN AFB   MOCLDY    76  57  52 SE7       30.11S
ROSWELL        PTCLDY    73  62  68 CALM      30.04R
RUIDOSO        PTCLDY    63  50  63 MISG      30.31R
SANTA FE       MOCLDY    66  52  60 N13       30.24R
TRUTH OR CONSE CLOUDY    77  53  43 CALM      30.16R
TUCUMCARI      CLEAR     76  61  59 S13       30.03R
$$

USA.gov is the U.S. government's official web portal to all federal, state and local government web resources and services.